TIANYAN 01

Last updated on Thu Sep 10 2026 00:03:12 GMT+0000 (Coordinated Universal Time)

1 44881U 19093C 26252.58613032 .00000240 00000+0 33012-4 0 9990 2 44881 97.7471 322.7337 0013646 162.8872 197.2807 14.86626503363954
UTC large
Height (km)
Speed (km/s)
/
Latitude / Longitude
Inclination (degrees)
Orbital Period (minutes)
Azimuth
Elevation
Range (km)
Doppler Factor

Next 0 passes for location: London (51.5072 / 0.1276)

No passes found over London.
TIANYAN 01